Weather History for KSPD - December, 2012

Change the Weather History Date:

Sunday, December 16, 2012

  Actual Average Record
Temperature  
Mean Temperature 30 °F -  
Max Temperature 39 °F 46 °F 66 °F (2013)
Min Temperature 20 °F 18 °F 10 °F (2000)
Degree Days  
Heating Degree Days 35 33  
Month to date heating degree days 410 507  
Since 1 July heating degree days 1386 1653  
Cooling Degree Days 0 0  
Month to date cooling degree days 0 0  
Year to date cooling degree days 1422 1028  
Moisture  
Dew Point 23 °F    
Average Humidity 76    
Maximum Humidity 88    
Minimum Humidity 63    
Precipitation  
Precipitation 0.00 in 0.01 in 0.05 in (2010)
Month to date precipitation 0.10 0.30  
Year to date precipitation 8.17 17.34  
Sea Level Pressure  
Sea Level Pressure 29.73 in    
Wind  
Wind Speed 6 mph (NNW)    
Max Wind Speed 20 mph    
Max Gust Speed 28 mph    
T = Trace of Precipitation, MM = Missing Value Source: NWS Daily Summary

Daily Weather History Graph

Daily Weather History Graph

Search for Another Location

Airport or City:

Trip Planner

Search our weather history database for the weather conditions in past years. The results will help you decide how hot, cold, wet, or windy it might be!

Date:

Astronomy

Dec. 16, 2012 Rise Set
Actual Time 6:58 AM MST 4:34 PM MST
Civil Twilight 6:29 AM MST 5:03 PM MST
Nautical Twilight 5:56 AM MST 5:36 PM MST
Astronomical Twilight 5:24 AM MST 6:08 PM MST
Moon 9:36 AM MST (12/16) 8:46 PM MST (12/16)
Length of Visible Light 10h 34m
Length of Day
9h 36m
Waxing Crescent, 16% of the Moon is Illuminated
Dec 16
Waxing Crescent
Dec 19
First Quarter
Dec 28
Full
Jan 4
Last Quarter
Jan 11
New

Hourly Weather History & Observations

Time (MST) Temp. Windchill Dew Point Humidity Pressure Visibility Wind Dir Wind Speed Gust Speed Precip Events Conditions
12:56 AM 25.0 °F - 19.0 °F 78% 29.64 in - Calm Calm - N/A   Unknown
1:56 AM 24.1 °F 16.0 °F 19.0 °F 81% 29.62 in - West 6.9 mph - N/A   Unknown
2:56 AM 30.0 °F - 21.0 °F 69% 29.58 in - Calm Calm - N/A   Unknown
3:56 AM 30.9 °F 26.2 °F 21.0 °F 67% 29.57 in - West 4.6 mph - N/A   Unknown
4:56 AM 32.0 °F 24.2 °F 21.9 °F 66% 29.60 in - NW 9.2 mph - N/A   Unknown
5:56 AM 30.0 °F 19.1 °F 19.9 °F 66% 29.66 in - NNW 15.0 mph - N/A   Unknown
6:56 AM 26.1 °F 14.0 °F 18.0 °F 71% 29.71 in - North 15.0 mph - N/A   Unknown
7:56 AM 26.1 °F 15.6 °F 19.0 °F 75% 29.78 in - North 11.5 mph - N/A   Unknown
8:56 AM 30.9 °F 21.2 °F 26.1 °F 82% 29.77 in - North 12.7 mph - N/A   Unknown
9:56 AM 32.0 °F 26.4 °F 27.0 °F 82% 29.78 in - ENE 5.8 mph - N/A   Unknown
10:56 AM 33.1 °F 27.7 °F 27.0 °F 78% 29.76 in - ENE 5.8 mph - N/A   Unknown
11:56 AM 35.1 °F 31.0 °F 27.0 °F 72% 29.73 in - NE 4.6 mph - N/A   Unknown
12:56 PM 37.0 °F 34.5 °F 28.0 °F 70% 29.71 in - South 3.5 mph - N/A   Unknown
1:56 PM 37.0 °F - 28.0 °F 70% 29.69 in - Calm Calm - N/A   Unknown
2:56 PM 37.9 °F 35.5 °F 28.9 °F 70% 29.68 in - South 3.5 mph - N/A   Unknown
3:56 PM 39.0 °F 36.8 °F 28.9 °F 67% 29.68 in - SE 3.5 mph - N/A   Unknown
4:56 PM 33.1 °F 28.7 °F 28.0 °F 82% 29.72 in - SE 4.6 mph - N/A   Unknown
5:56 PM 30.0 °F - 25.0 °F 82% 29.75 in - Calm Calm - N/A   Unknown
6:56 PM 24.1 °F - 21.9 °F 91% 29.82 in - Calm Calm - N/A   Unknown
7:56 PM 23.0 °F 14.7 °F 19.9 °F 88% 29.84 in - WNW 6.9 mph - N/A   Unknown
8:56 PM 21.0 °F 14.6 °F 17.1 °F 85% 29.84 in - NNW 4.6 mph - N/A   Unknown
9:56 PM 24.1 °F 16.0 °F 17.1 °F 75% 29.87 in - NNW 6.9 mph - N/A   Unknown
10:56 PM 25.0 °F 16.3 °F 19.9 °F 81% 29.85 in - NW 8.1 mph - N/A   Unknown
11:56 PM 24.1 °F 16.0 °F 19.9 °F 84% 29.84 in - NW 6.9 mph - N/A   Unknown